Location: Dresden
(51.0483°N, 13.7137°E)
Time: 06:15:32
(UTC+02:00)

ISS - Visible Passes

Search period start: 01 May 2017 00:00
Search period end: 11 May 2017 00:00
Orbit: 401 x 409 km, 51.6° (Epoch: 01 May)

Date Brightness Start Highest point End Pass type
(mag) Time Alt. Az. Time Alt. Az. Time Alt. Az.
08 May -1.7 04:37:46 10° S 04:40:04 18° SE 04:42:22 10° E visible
09 May -1.3 03:47:06 10° SSE 03:48:10 11° SE 03:49:14 10° ESE visible
10 May -2.6 04:29:01 10° SSW 04:31:58 31° SSE 04:34:55 10° E visible
